• In Romania
  • List of Countries
  • For 7 days
  • Water Temperature
  • Satellite Maps
  • Weather Map
  • Weather Widgets
  • user-avatar
    Login

    Hourly Weather Ordino

    Today, 21 August, Monday

    Time Temperature Precipitation Wind Pressure Humidity
    00:00 +10°C° 0 mm 2 mps 638 mmHg 45%
    01:00 +10°C° 0 mm 2 mps 638 mmHg 44%
    02:00 +10°C° 0 mm 2 mps 638 mmHg 42%
    03:00 +10°C° 0 mm 2 mps 638 mmHg 41%
    04:00 +12°C° 0 mm 2 mps 638 mmHg 42%
    05:00 +12°C° 0 mm 2 mps 638 mmHg 44%
    06:00 +12°C° 0 mm 2 mps 638 mmHg 45%
    07:00 +15°C° 0 mm 1 mps 639 mmHg 41%
    08:00 +20°C° 0 mm 1 mps 640 mmHg 36%
    09:00 +23°C° 0 mm 1 mps 641 mmHg 32%
    10:00 +24°C° 0 mm 1 mps 641 mmHg 30%
    11:00 +25°C° 0 mm 1 mps 642 mmHg 29%
    12:00 +27°C° 0 mm 1 mps 642 mmHg 27%
    13:00 +27°C° 0 mm 1 mps 642 mmHg 28%
    14:00 +27°C° 0 mm 1 mps 641 mmHg 29%
    15:00 +27°C° 0 mm 2 mps 641 mmHg 30%
    16:00 +25°C° 0 mm 1 mps 640 mmHg 37%
    17:00 +23°C° 0 mm 1 mps 639 mmHg 45%
    18:00 +22°C° 0 mm 1 mps 639 mmHg 53%
    19:00 +20°C° 0 mm 1 mps 638 mmHg 59%
    20:00 +18°C° 0 mm 1 mps 638 mmHg 65%
    21:00 +15°C° 0 mm 1 mps 638 mmHg 72%
    22:00 +15°C° 0 mm 1 mps 638 mmHg 74%
    23:00 +15°C° 0 mm 1 mps 637 mmHg 76%

    Tomorrow, 22 August, Tuesday

    Time Temperature Precipitation Wind Pressure Humidity
    00:00 +15°C° 0 mm 1 mps 637 mmHg 78%
    01:00 +14°C° 0 mm 1 mps 637 mmHg 79%
    02:00 +14°C° 0 mm 1 mps 637 mmHg 79%
    03:00 +14°C° 0 mm 1 mps 637 mmHg 80%
    04:00 +14°C° 0 mm 1 mps 637 mmHg 80%
    05:00 +15°C° 0 mm 1 mps 637 mmHg 79%
    06:00 +15°C° 0 mm 1 mps 637 mmHg 79%
    07:00 +19°C° 0 mm 1 mps 638 mmHg 67%
    08:00 +21°C° 0 mm 2 mps 639 mmHg 55%
    09:00 +25°C° 0 mm 2 mps 640 mmHg 43%
    10:00 +26°C° 0 mm 2 mps 640 mmHg 39%
    11:00 +27°C° 0 mm 2 mps 641 mmHg 34%
    12:00 +29°C° 0 mm 2 mps 641 mmHg 30%
    13:00 +28°C° 0 mm 2 mps 640 mmHg 30%
    14:00 +28°C° 0 mm 2 mps 640 mmHg 30%
    15:00 +28°C° 0 mm 2 mps 640 mmHg 30%
    16:00 +26°C° 0 mm 2 mps 639 mmHg 37%
    17:00 +25°C° 0 mm 1 mps 639 mmHg 45%
    18:00 +23°C° 0 mm 1 mps 638 mmHg 52%
    19:00 +21°C° 0 mm 1 mps 638 mmHg 57%
    20:00 +19°C° 0 mm 1 mps 638 mmHg 63%
    21:00 +16°C° 0 mm 1 mps 637 mmHg 68%
    22:00 +16°C° 0.1 mm 1 mps 637 mmHg 69%
    23:00 +16°C° 0.1 mm 1 mps 637 mmHg 70%

    Day after tomorrow, 23 August, Wednesday

    Time Temperature Precipitation Wind Pressure Humidity
    00:00 +15°C° 0.1 mm 1 mps 637 mmHg 71%
    01:00 +15°C° 0 mm 1 mps 637 mmHg 72%
    02:00 +14°C° 0 mm 0 mps 637 mmHg 73%
    03:00 +13°C° 0 mm 0 mps 637 mmHg 74%
    04:00 +14°C° 0.2 mm 0 mps 637 mmHg 73%
    05:00 +14°C° 0.2 mm 0 mps 637 mmHg 72%
    06:00 +14°C° 0.2 mm 0 mps 637 mmHg 72%
    07:00 +18°C° 0.1 mm 1 mps 638 mmHg 64%
    08:00 +21°C° 0.1 mm 1 mps 639 mmHg 56%
    09:00 +23°C° 0.1 mm 2 mps 640 mmHg 48%
    10:00 +24°C° 0 mm 2 mps 640 mmHg 45%
    11:00 +25°C° 0 mm 2 mps 640 mmHg 42%
    12:00 +26°C° 0 mm 3 mps 640 mmHg 39%
    13:00 +26°C° 0.1 mm 3 mps 640 mmHg 40%
    14:00 +26°C° 0.1 mm 2 mps 640 mmHg 41%
    15:00 +26°C° 0.1 mm 2 mps 639 mmHg 41%
    16:00 +25°C° 0.1 mm 2 mps 639 mmHg 48%
    17:00 +23°C° 0.1 mm 2 mps 638 mmHg 54%
    18:00 +22°C° 0.1 mm 1 mps 638 mmHg 61%
    19:00 +20°C° 0.1 mm 1 mps 638 mmHg 65%
    20:00 +18°C° 0.1 mm 1 mps 637 mmHg 70%
    21:00 +16°C° 0.1 mm 1 mps 637 mmHg 74%
    22:00 +16°C° 0.1 mm 1 mps 637 mmHg 74%
    23:00 +15°C° 0.1 mm 1 mps 637 mmHg 74%

    24 August, Thursday

    Time Temperature Precipitation Wind Pressure Humidity
    00:00 +15°C° 0.1 mm 1 mps 637 mmHg 73%
    01:00 +15°C° 0 mm 1 mps 636 mmHg 72%
    02:00 +14°C° 0 mm 1 mps 636 mmHg 71%
    03:00 +14°C° 0 mm 1 mps 636 mmHg 70%
    04:00 +14°C° 0 mm 1 mps 636 mmHg 69%
    05:00 +14°C° 0 mm 1 mps 636 mmHg 68%
    06:00 +14°C° 0 mm 1 mps 636 mmHg 66%
    07:00 +18°C° 0 mm 1 mps 637 mmHg 58%
    08:00 +21°C° 0 mm 1 mps 638 mmHg 49%
    09:00 +24°C° 0 mm 2 mps 639 mmHg 41%
    10:00 +25°C° 0 mm 2 mps 640 mmHg 38%
    11:00 +26°C° 0 mm 3 mps 640 mmHg 35%
    12:00 +27°C° 0 mm 3 mps 640 mmHg 32%
    13:00 +27°C° 0 mm 3 mps 640 mmHg 32%
    14:00 +27°C° 0 mm 4 mps 639 mmHg 33%
    15:00 +27°C° 0 mm 4 mps 639 mmHg 33%
    16:00 +25°C° 0 mm 3 mps 638 mmHg 39%
    17:00 +24°C° 0 mm 3 mps 638 mmHg 45%
    18:00 +21°C° 0 mm 2 mps 637 mmHg 51%
    19:00 +19°C° 0 mm 2 mps 637 mmHg 54%
    20:00 +17°C° 0 mm 2 mps 636 mmHg 57%
    21:00 +15°C° 0 mm 1 mps 636 mmHg 60%
    22:00 +15°C° 0 mm 1 mps 636 mmHg 59%
    23:00 +15°C° 0 mm 1 mps 636 mmHg 58%

    25 August, Friday

    Time Temperature Precipitation Wind Pressure Humidity
    00:00 +14°C° 0 mm 1 mps 635 mmHg 57%
    01:00 +14°C° 0 mm 1 mps 635 mmHg 57%
    02:00 +14°C° 0 mm 1 mps 635 mmHg 57%
    03:00 +14°C° 0 mm 1 mps 635 mmHg 57%
    04:00 +14°C° 0 mm 2 mps 635 mmHg 57%
    05:00 +14°C° 0 mm 2 mps 635 mmHg 58%
    06:00 +14°C° 0 mm 2 mps 635 mmHg 59%
    07:00 +17°C° 0 mm 2 mps 636 mmHg 51%
    08:00 +19°C° 0 mm 3 mps 637 mmHg 43%
    09:00 +22°C° 0 mm 3 mps 638 mmHg 36%
    10:00 +24°C° 0 mm 3 mps 638 mmHg 33%
    11:00 +25°C° 0 mm 4 mps 638 mmHg 31%
    12:00 +27°C° 0 mm 4 mps 638 mmHg 29%
    13:00 +27°C° 0 mm 4 mps 638 mmHg 29%
    14:00 +26°C° 0 mm 4 mps 637 mmHg 30%
    15:00 +26°C° 0 mm 4 mps 637 mmHg 30%
    16:00 +25°C° 0 mm 4 mps 636 mmHg 36%
    17:00 +22°C° 0 mm 3 mps 636 mmHg 42%
    18:00 +20°C° 0 mm 2 mps 635 mmHg 48%
    19:00 +18°C° 0 mm 2 mps 635 mmHg 50%
    20:00 +17°C° 0 mm 2 mps 635 mmHg 52%
    21:00 +15°C° 0 mm 2 mps 634 mmHg 54%
    22:00 +15°C° 0 mm 2 mps 634 mmHg 51%
    23:00 +15°C° 0 mm 2 mps 634 mmHg 48%

    26 August, Saturday

    Time Temperature Precipitation Wind Pressure Humidity
    00:00 +14°C° 0 mm 2 mps 634 mmHg 45%
    01:00 +14°C° 0 mm 2 mps 633 mmHg 46%
    02:00 +14°C° 0 mm 1 mps 633 mmHg 47%
    03:00 +13°C° 0 mm 1 mps 633 mmHg 48%
    04:00 +13°C° 0 mm 1 mps 633 mmHg 51%
    05:00 +13°C° 0 mm 1 mps 633 mmHg 54%
    06:00 +14°C° 0 mm 1 mps 633 mmHg 57%
    07:00 +16°C° 0.1 mm 2 mps 634 mmHg 53%
    08:00 +19°C° 0.1 mm 2 mps 635 mmHg 49%
    09:00 +21°C° 0.1 mm 3 mps 636 mmHg 45%
    10:00 +22°C° 0 mm 3 mps 636 mmHg 43%
    11:00 +23°C° 0 mm 4 mps 637 mmHg 40%
    12:00 +26°C° 0 mm 4 mps 637 mmHg 38%
    13:00 +25°C° 0.6 mm 4 mps 636 mmHg 44%
    14:00 +23°C° 0.6 mm 4 mps 636 mmHg 51%
    15:00 +22°C° 0.6 mm 4 mps 635 mmHg 57%
    16:00 +21°C° 1.3 mm 3 mps 635 mmHg 62%
    17:00 +20°C° 1.3 mm 3 mps 635 mmHg 66%
    18:00 +19°C° 1.3 mm 2 mps 635 mmHg 71%
    19:00 +17°C° 0.2 mm 2 mps 635 mmHg 73%
    20:00 +16°C° 0.2 mm 2 mps 635 mmHg 74%
    21:00 +15°C° 0.2 mm 1 mps 635 mmHg 76%
    22:00 +14°C° 0.1 mm 1 mps 635 mmHg 74%
    23:00 +14°C° 0.1 mm 1 mps 635 mmHg 72%
    Show more